Back to catalog

STARLINK-32147

AliveCommunicationsVLEO
NORAD 60152·PAYLOAD·🇺🇸 United States

Launched Jun 27, 2024 from Cape Canaveral Space Force Station

Loading…

Next Passes (next 24 hours)

TLE

FreshSource: CelesTrak SupGP

Epoch: Sep 14, 2026, 15:03 UTC

1 60152C 24120T   26257.62756944  .00062368  00000+0  18428-2 0  2574
2 60152  53.1575 159.2134 0001172 102.2276  31.5561 15.34357212    13

Track STARLINK-32147 in real time with AllMySat

Download on the App Store